Location: Nairn
(57.5833°N, 3.8667°W)
Time: 03:06:15
(UTC+00:00)

Cosmos 1777 Rocket - Pass Details

Date: 07 August 2020
Orbit: 758 x 775 km, 74.0° (Epoch: 27 September)

Event Time Altitude Azimuth Distance (km) Brightness Sun altitude
Exits shadow 02:29:02 16° 210° (SSW) 1,945 5.4 -11.5°
Maximum altitude 02:33:21 86° 300° (WNW) 785 4.0 -11.2°
Drops below altitude 10° 02:38:41 10° 30° (NNE) 2,338 8.1 -10.8°
Sets 02:41:05 0° 31° (NNE) 3,270 9.5 -10.6°
